Location: Gleizolles
(44.4833°N, 6.7667°E)
Time: 16:41:01
(UTC+00:00)

Explorer 7 - Pass Details

Date: 23 June 2024
Orbit: 465 x 619 km, 50.3° (Epoch: 12 July)

Event Time Altitude Azimuth Distance (km) Brightness Sun altitude
Rises 16:45:44 0° 287° (WNW) 2,517 11.6 24.8°
Reaches altitude 10° 16:48:25 10° 268° (W) 1,623 11.0 24.3°
Maximum altitude 16:50:53 17° 225° (SW) 1,227 9.2 23.9°
Drops below altitude 10° 16:53:21 10° 182° (S) 1,609 9.2 23.4°
Sets 16:56:00 0° 162° (SSE) 2,484 9.9 23.0°
